Skip to main content Skip to accessibility
This website is not compatible with your web browser. You should install a newer browser. If you live in Jersey and need help upgrading call the States of Jersey web team on 440099.
Homegov.je

Information and public services for the Island of Jersey

L'înformâtion et les sèrvices publyis pouor I'Île dé Jèrri

  • Choose the service you want to log in to:

  • gov.je

    Update your notification preferences

  • one.gov.je

    Access government services

  • CAESAR

    Clear goods through customs or claim relief

  • Talentlink

    View or update your States of Jersey job application

Local METARs

METAR EGJJ 060950Z 16009KT 130V190 CAVOK 23/16 Q1017

METAR EGJB 061020Z 17007KT CAVOK 22/17 Q1017

METAR EGJA 061020Z 19006KT CAVOK 20/17 Q1018

METAR LFRD 061000Z AUTO 19006KT 110V240 CAVOK 25/16 Q1017 NOSIG

METAR LFRC 061000Z AUTO 17006KT 110V200 CAVOK 25/16 Q1017 BECMG 33010KT

 

 

 

​Apologies to the disruption to normal service. Commercial Aviation Services are available from the Jersey Met Forecaster 01534 448765.

Times are in Greenwich Mean Time (GMT) and not British Summer Time (BST). They will be one hour different during BST.

Back to top
rating button